Raul Herrera

Chefscout - Morelia
3 Dez 2028
Sonntag
Verarbeitung

Persönlichkeit

Anpassungsfähigkeit (1) Ehrgeiz (8) Kontroverse (7) Loyalität (10) Druck (17) Professionalität (17) Fairness (4) Temperament (15)

Profil

Trainerstil Demokratisch
Lizenz Nationale B
Entschlossenheit 12
Menschenführung 4
Motivation 9
Disziplin 5
Arbeitszufriedenheit
100%
Ermüdung
0%
Rolle Chefscout
Gehalt 74.4K p/W
Vertrag 14.03.2029

Leistung

Verhalten Gut
Trainingseffektivität
41%
Spielerentwicklung
45%
Verletzungsprävention
40%
Taktische Umsetzung
25%

Letzte Ereignisse

Nahm an einer Scouting-Besprechung teil jetzt
Empfahl ein Transferziel jetzt
Empfahl ein Transferziel jetzt
Empfahl ein Transferziel jetzt
Empfahl ein Transferziel 7T her
Empfahl ein Transferziel 7T her
Empfahl ein Transferziel 7T her
Empfahl ein Transferziel 7T her

Aktuell beobachtet

82
Spieler Verein Status Fähigkeit Vertrauen Beobachtet Zuletzt beobachtet Letzte Stimme
Gael García Guadalajara Aktiv 108 / 118 51% 1 19.06.2028 -
Iker Benito Casa Pia Aktiv 121 / 122 66% 1 01.01.2028 Befürworten
Tobias Mohr Farense Aktiv 117 / 117 68% 1 01.01.2028 Befürworten
Ramadan Ashour Sporting Cristal Aktiv 120 / 120 67% 1 01.06.2027 Befürworten
Aune Heggebø West Bromwich Albion Aktiv 132 / 135 40% 3 28.05.2027 -
Calum Kavanagh Oldham Athletic Aktiv 92 / 111 40% 4 27.05.2027 -
Aidomo Emakhu Oxford United Aktiv 115 / 128 40% 1 27.05.2027 -
Josh Coburn Millwall Aktiv 115 / 115 40% 2 25.05.2027 -
Bertuğ Yıldırım Basaksehir Aktiv 111 / 135 40% 2 24.05.2027 -
Andri Guðjohnsen Blackburn Rovers Aktiv 141 / 117 40% 1 23.05.2027 -
Duk Atlas Aktiv 123 / 121 40% 2 18.05.2027 -
Patrick Agyemang Derby County Aktiv 132 / 119 40% 3 18.05.2027 -
Stiven Shpendi Empoli Aktiv 137 / 114 40% 3 17.05.2027 -
Marezi Portsmouth Aktiv 121 / 113 40% 3 13.05.2027 -
Malik Mothersille Stockport County Aktiv 117 / 112 40% 2 09.05.2027 -
Luca Koleosho Paris FC Aktiv 125 / 140 40% 5 06.05.2027 -
Yousef Salech Cardiff City Aktiv 136 / 121 40% 2 03.05.2027 -
Sorriso Famalicao Aktiv 138 / 127 40% 7 29.04.2027 -
Mees Rijks Bristol Rovers Aktiv 119 / 119 40% 1 29.04.2027 -
Camillo Tavernelli Arezzo Aktiv 97 / 118 40% 2 27.04.2027 -
Leo Castledine Middlesbrough Aktiv 136 / 131 40% 1 25.04.2027 -
Erick Dolly Black Aces Aktiv 102 / 132 40% 1 22.04.2027 -
Fábio Tavares Burton Albion Aktiv 81 / 109 40% 1 22.04.2027 -
Sam Greenwood Bristol City Aktiv 139 / 111 40% 7 19.04.2027 -
Vinícius Lopes Santa Clara Aktiv 108 / 105 40% 5 17.04.2027 -
Gustavo Silva Vitoria Guimaraes Aktiv 122 / 119 40% 1 14.04.2027 -
Danny Butterworth Accrington Stanley Aktiv 98 / 88 40% 1 11.04.2027 -
Tyrese Campbell Sheffield United Aktiv 134 / 131 40% 1 09.04.2027 -
Luis Caicedo Spartak 1918 Aktiv 110 / 106 40% 3 08.04.2027 -
Joe Gelhardt Hull City Aktiv 130 / 146 40% 4 07.04.2027 -
Jackson Muleka Konyaspor Aktiv 138 / 135 40% 4 03.04.2027 -
Evidence Makgopa Orlando Pirates Aktiv 110 / 109 40% 3 01.04.2027 -
Wandile Duba ASO Chlef Aktiv 93 / 111 40% 1 29.03.2027 -
Etiosa Ighodaro Kaizer Chiefs Aktiv 126 / 117 40% 3 27.03.2027 -
Sam Dalby Bolton Wanderers Aktiv 126 / 102 40% 1 27.03.2027 -
Tyreece Campbell Charlton Athletic Aktiv 99 / 119 40% 2 25.03.2027 -
Richard Koné Queens Park Rangers Aktiv 133 / 120 40% 1 24.03.2027 -
Martín Tejón Maritimo Aktiv 106 / 123 40% 1 21.03.2027 -
Rafael Navarro Famalicao Aktiv 130 / 121 40% 4 20.03.2027 -
Sam Bell Bristol City Aktiv 133 / 117 40% 1 20.03.2027 -
Henrique Araújo Casa Pia Aktiv 118 / 123 40% 2 18.03.2027 -
Rocco Vata Watford Aktiv 132 / 126 40% 1 14.03.2027 -
Casper Tengstedt Toulouse FC Aktiv 124 / 111 40% 1 10.03.2027 -
Justo Giani Umraniyespor Aktiv 135 / 125 40% 3 09.03.2027 -
Amin Sarr Hellas Verona Aktiv 110 / 126 40% 1 06.03.2027 -
Yanis Begraoui Estoril Praia Aktiv 131 / 134 40% 1 03.03.2027 -
Lorent Tolaj Plymouth Argyle Aktiv 123 / 111 40% 1 01.03.2027 -
Christian Saydee Wigan Athletic Aktiv 130 / 114 40% 1 18.02.2027 -
Brayan Gil Baltika Aktiv 118 / 114 40% 1 12.02.2027 -
Armstrong Oko-Flex Levski Aktiv 122 / 111 40% 1 11.02.2027 -
Stephen Amankona Aduana Stars Aktiv 94 / 102 40% 1 10.02.2027 -
Alfie Doughty Millwall Aktiv 126 / 128 40% 1 04.02.2027 -
Aldair Faustino Levski Aktiv 107 / 103 40% 1 04.02.2027 -
Lewis Bate Stockport County Aktiv 119 / 136 40% 2 03.02.2027 -
Caspar Jander Southampton Aktiv 138 / 146 40% 1 01.02.2027 -
Joel Bagan Cardiff City Aktiv 113 / 98 40% 1 01.02.2027 -
Job Ochieng Real Sociedad Aktiv 97 / 111 40% 1 13.01.2027 -
Sampson Dweh Mallorca Aktiv 133 / 134 66% 1 01.01.2027 Befürworten
Sota Kitano Red Bull Salzburg Aktiv 120 / 126 66% 1 01.01.2027 Befürworten
Gastón Benedetti Estudiantes Aktiv 115 / 119 40% 1 31.12.2026 -
Jaminton Campaz Rosario Central Aktiv 120 / 124 40% 1 31.12.2026 -
Tomáš Rigo Stoke City Aktiv 117 / 143 40% 1 29.12.2026 -
Isaiah Jones Luton Town Aktiv 123 / 109 40% 1 29.12.2026 -
Bongani Zungu Ajax Cape Town Aktiv 130 / 126 40% 2 26.12.2026 -
Oswin Appollis Orlando Pirates Aktiv 103 / 121 40% 1 25.12.2026 -
Sorba Thomas Stoke City Aktiv 138 / 113 40% 1 24.12.2026 -
Ramiro Sordo Santos Laguna Aktiv 114 / 132 40% 1 23.12.2026 -
Sylvester Jasper Standard Liege Aktiv 117 / 107 40% 1 23.12.2026 -
Gonzalo Ríos Independiente Rivadavia Aktiv 118 / 126 40% 1 21.12.2026 -
Jack McGlynn Stoke City Aktiv 139 / 144 40% 1 20.12.2026 -
Ilias Sebaoui Sint-Truiden Aktiv 106 / 113 40% 1 19.12.2026 -
Finn Azaz Southampton Aktiv 129 / 139 40% 1 17.12.2026 -
Alan Lescano Argentinos Juniors Aktiv 131 / 127 40% 2 16.12.2026 -
Jack Diamond Stockport County Aktiv 105 / 121 40% 1 11.12.2026 -
Santiago Sala Güemes Aktiv 116 / 112 40% 1 11.12.2026 -
Dale Taylor Blackpool Aktiv 92 / 115 40% 1 10.12.2026 -
Tyrhys Dolan Espanyol Aktiv 127 / 139 40% 1 08.12.2026 -
Brian Gutiérrez Guadalajara Aktiv 125 / 136 40% 1 08.12.2026 -
Tiago Marghetich Quilmes Aktiv 98 / 91 40% 1 19.08.2026 -
Franco Chacarelli Belgrano Aktiv 81 / 89 40% 1 11.08.2026 -
Lucas Velásquez Huachipato Aktiv 90 / 97 40% 1 11.08.2026 -
Tadeo Schettino Sarmiento Aktiv 88 / 93 40% 1 03.08.2026 -